Home   Weather   Tracy   Past weeks
Flag for USA

Past Weather in Tracy, California, USA — Yesterday and Last 2 Weeks

Now
49 °F

Clear.


Feels Like: 49 °F
Forecast: 77 / 47 °F
Wind: No wind

Location: Stockton Metropolitan Airport

Current Time: Oct 16, 2019 at 3:23:20 am

Latest Report: Oct 16, 2019 at 2:55 am


Visibility: 10 mi

Pressure: 30.00 "Hg

Humidity: 64%

Dew Point: 37 °F

Location of TracyLocation

Past Weather in Tracy — Graph

°F

Tracy Temperature Yesterday

Maximum temperature yesterday: 83 °F (at 3:55 pm)
Minimum temperature yesterday: 46 °F (at 7:55 am)
Average temperature yesterday: 63 °F

High & Low Weather Summary for the Past Weeks

 TemperatureHumidityPressure
High91 °F (Oct 8, 3:55 pm)83% (Oct 15, 5:55 am)30.14 "Hg (Oct 15, 5:55 am)
Low44 °F (Oct 12, 6:55 am)12% (Oct 10, 12:55 pm)29.77 "Hg (Oct 8, 7:55 pm)
Average64 °F41%29.95 "Hg
* Reported Oct 1 1:55 am — Oct 16 1:55 am, Tracy. Weather by CustomWeather, © 2019

Note: Actual official high and low records may vary slightly from our data, if they occured in-between our weather recording intervals... More about our weather records

Advertising

Tracy Weather History for the Previous 24 Hours

Scroll right to see more
 ConditionsComfort  
Time TempWeatherWind HumidityBarometerVisibility
1:55 am
Wed, Oct 16
53 °FClear.No wind61%30.00 "Hg10 mi
12:55 am54 °FClear.No wind62%30.00 "Hg10 mi
11:55 pm
Tue, Oct 15
56 °FClear.No wind55%30.01 "Hg10 mi
10:55 pm60 °FClear.No wind47%30.00 "Hg10 mi
9:55 pm63 °FClear.7 mph43%30.00 "Hg10 mi
8:55 pm64 °FClear.5 mph41%29.99 "Hg10 mi
7:55 pm67 °FClear.3 mph36%29.98 "Hg10 mi
6:55 pm73 °FClear.6 mph28%29.98 "Hg10 mi
5:55 pm79 °FSunny.8 mph23%29.98 "Hg10 mi
4:55 pm82 °FSunny.3 mph18%29.99 "Hg10 mi
3:55 pm83 °FSunny.3 mph20%30.00 "Hg10 mi
2:55 pm80 °FSunny.3 mph20%30.01 "Hg10 mi
1:55 pm79 °FSunny.No wind21%30.04 "Hg10 mi
12:55 pm76 °FSunny.No wind25%30.07 "Hg10 mi
11:55 am73 °FSunny.3 mph29%30.08 "Hg10 mi
10:55 am68 °FSunny.3 mph42%30.10 "Hg10 mi
9:55 am62 °FSunny.6 mph60%30.10 "Hg9 mi
8:55 am56 °FSunny.No wind67%30.09 "Hg6 mi
7:55 am46 °FSunny.No wind77%30.06 "Hg10 mi
6:55 am47 °FClear.N/A77%30.05 "Hg10 mi
5:55 am48 °FClear.No wind83%30.04 "Hg10 mi
4:55 am50 °FClear.No wind77%30.01 "Hg10 mi
3:55 am48 °FClear.5 mph74%30.01 "Hg10 mi
Weather by CustomWeather, © 2019

See weather overview